Previsão horária em 1-e Yuldybaevo

Hoje, 14 Abril, Quarta-feira

Tempo Temperatura Precipitação Vento Pressão Humidade
00:00 +3°C° 0 mm 1 m/s 753 mmHg 97%
01:00 +3°C° 0 mm 1 m/s 753 mmHg 97%
02:00 +3°C° 0 mm 1 m/s 753 mmHg 96%
03:00 +3°C° 0 mm 1 m/s 753 mmHg 96%
04:00 +2°C° 0 mm 1 m/s 753 mmHg 96%
05:00 +3°C° 0 mm 1 m/s 753 mmHg 94%
06:00 +4°C° 0 mm 1 m/s 753 mmHg 93%
07:00 +4°C° 0 mm 1 m/s 752 mmHg 91%
08:00 +6°C° 0 mm 2 m/s 752 mmHg 83%
09:00 +8°C° 0 mm 2 m/s 752 mmHg 75%
10:00 +10°C° 0 mm 3 m/s 751 mmHg 67%
11:00 +11°C° 0 mm 3 m/s 751 mmHg 62%
12:00 +12°C° 0 mm 3 m/s 751 mmHg 56%
13:00 +14°C° 0 mm 4 m/s 750 mmHg 51%
14:00 +14°C° 0 mm 4 m/s 750 mmHg 51%
15:00 +14°C° 0 mm 3 m/s 749 mmHg 52%
16:00 +14°C° 0 mm 3 m/s 749 mmHg 53%
17:00 +12°C° 0 mm 3 m/s 749 mmHg 60%
18:00 +10°C° 0 mm 3 m/s 749 mmHg 67%
19:00 +8°C° 0 mm 2 m/s 749 mmHg 74%
20:00 +7°C° 0 mm 2 m/s 749 mmHg 76%
21:00 +6°C° 0 mm 2 m/s 749 mmHg 78%
22:00 +5°C° 0 mm 2 m/s 749 mmHg 79%
23:00 +5°C° 0 mm 2 m/s 748 mmHg 79%

Amanhã, 15 Abril, Quinta-feira

Tempo Temperatura Precipitação Vento Pressão Humidade
00:00 +4°C° 0 mm 2 m/s 748 mmHg 78%
01:00 +5°C° 0 mm 1 m/s 748 mmHg 78%
02:00 +6°C° 0 mm 1 m/s 747 mmHg 72%
03:00 +5°C° 0 mm 1 m/s 748 mmHg 75%
04:00 +4°C° 0 mm 1 m/s 748 mmHg 78%
05:00 +5°C° 0 mm 1 m/s 748 mmHg 76%
06:00 +6°C° 0 mm 1 m/s 748 mmHg 74%
07:00 +7°C° 0 mm 1 m/s 747 mmHg 71%
08:00 +9°C° 0 mm 1 m/s 747 mmHg 64%
09:00 +12°C° 0 mm 1 m/s 746 mmHg 56%
10:00 +14°C° 0 mm 1 m/s 746 mmHg 49%
11:00 +15°C° 0 mm 2 m/s 746 mmHg 44%
12:00 +17°C° 0 mm 2 m/s 745 mmHg 40%
13:00 +18°C° 0 mm 2 m/s 745 mmHg 36%
14:00 +11°C° 0 mm 1 m/s 746 mmHg 59%
15:00 +15°C° 0 mm 1 m/s 745 mmHg 46%
16:00 +19°C° 0 mm 2 m/s 744 mmHg 34%
17:00 +18°C° 0 mm 1 m/s 743 mmHg 40%
18:00 +16°C° 0 mm 1 m/s 743 mmHg 47%
19:00 +14°C° 0 mm 1 m/s 743 mmHg 53%
20:00 +13°C° 0 mm 1 m/s 743 mmHg 57%
21:00 +12°C° 0 mm 1 m/s 743 mmHg 60%
22:00 +11°C° 0 mm 1 m/s 742 mmHg 63%
23:00 +10°C° 0 mm 1 m/s 742 mmHg 64%

Depois de amanhã, 16 Abril, Sexta-feira

Tempo Temperatura Precipitação Vento Pressão Humidade
00:00 +9°C° 0 mm 1 m/s 742 mmHg 65%
01:00 +9°C° 0 mm 1 m/s 742 mmHg 66%
02:00 +8°C° 0 mm 1 m/s 742 mmHg 67%
03:00 +8°C° 0 mm 1 m/s 741 mmHg 68%
04:00 +8°C° 0 mm 1 m/s 741 mmHg 69%
05:00 +8°C° 0 mm 1 m/s 741 mmHg 68%
06:00 +9°C° 0 mm 1 m/s 741 mmHg 68%
07:00 +9°C° 0 mm 1 m/s 741 mmHg 67%
08:00 +11°C° 0 mm 1 m/s 741 mmHg 61%
09:00 +13°C° 0 mm 1 m/s 741 mmHg 54%
10:00 +15°C° 0 mm 2 m/s 741 mmHg 47%
11:00 +17°C° 0 mm 2 m/s 740 mmHg 42%
12:00 +18°C° 0 mm 2 m/s 740 mmHg 37%
13:00 +19°C° 0 mm 2 m/s 740 mmHg 32%
14:00 +19°C° 0 mm 2 m/s 740 mmHg 32%
15:00 +19°C° 0 mm 2 m/s 740 mmHg 31%
16:00 +20°C° 0 mm 2 m/s 740 mmHg 30%
17:00 +18°C° 0 mm 2 m/s 740 mmHg 38%
18:00 +17°C° 0 mm 2 m/s 740 mmHg 46%
19:00 +15°C° 0 mm 2 m/s 739 mmHg 54%
20:00 +14°C° 0 mm 2 m/s 740 mmHg 60%
21:00 +13°C° 0 mm 2 m/s 740 mmHg 67%
22:00 +12°C° 0 mm 2 m/s 740 mmHg 74%
23:00 +10°C° 0 mm 2 m/s 740 mmHg 79%

17 Abril, Sábado

Tempo Temperatura Precipitação Vento Pressão Humidade
00:00 +9°C° 0 mm 2 m/s 740 mmHg 84%
01:00 +8°C° 0 mm 2 m/s 740 mmHg 89%
02:00 +8°C° 0 mm 2 m/s 740 mmHg 90%
03:00 +7°C° 0 mm 2 m/s 741 mmHg 92%
04:00 +7°C° 0 mm 2 m/s 741 mmHg 94%
05:00 +7°C° 0 mm 2 m/s 741 mmHg 92%
06:00 +7°C° 0 mm 2 m/s 741 mmHg 90%
07:00 +8°C° 0 mm 2 m/s 741 mmHg 88%
08:00 +10°C° 0 mm 1 m/s 741 mmHg 83%
09:00 +11°C° 0 mm 1 m/s 741 mmHg 78%
10:00 +12°C° 0 mm 1 m/s 741 mmHg 73%
11:00 +12°C° 0 mm 2 m/s 741 mmHg 72%
12:00 +12°C° 0 mm 2 m/s 741 mmHg 72%
13:00 +12°C° 0 mm 2 m/s 741 mmHg 71%
14:00 +12°C° 0 mm 2 m/s 741 mmHg 71%
15:00 +12°C° 0 mm 2 m/s 741 mmHg 71%
16:00 +11°C° 0 mm 3 m/s 741 mmHg 72%
17:00 +10°C° 0 mm 2 m/s 741 mmHg 71%
18:00 +10°C° 0 mm 2 m/s 741 mmHg 71%
19:00 +10°C° 0 mm 1 m/s 741 mmHg 70%
20:00 +8°C° 0 mm 2 m/s 742 mmHg 70%
21:00 +7°C° 0 mm 2 m/s 742 mmHg 69%
22:00 +6°C° 0 mm 2 m/s 742 mmHg 69%
23:00 +5°C° 0 mm 2 m/s 742 mmHg 71%

18 Abril, Domingo

Tempo Temperatura Precipitação Vento Pressão Humidade
00:00 +4°C° 0 mm 2 m/s 742 mmHg 72%
01:00 +4°C° 0 mm 2 m/s 742 mmHg 74%
02:00 +3°C° 0 mm 2 m/s 743 mmHg 75%
03:00 +3°C° 0 mm 2 m/s 743 mmHg 77%
04:00 +2°C° 0 mm 2 m/s 743 mmHg 78%
05:00 +3°C° 0 mm 2 m/s 743 mmHg 75%
06:00 +2°C° 0 mm 3 m/s 743 mmHg 71%
07:00 +3°C° 0 mm 3 m/s 743 mmHg 68%
08:00 +4°C° 0 mm 3 m/s 743 mmHg 60%
09:00 +5°C° 0 mm 4 m/s 743 mmHg 53%
10:00 +6°C° 0 mm 5 m/s 743 mmHg 46%
11:00 +7°C° 0 mm 5 m/s 743 mmHg 45%
12:00 +8°C° 0 mm 5 m/s 743 mmHg 44%
13:00 +9°C° 0 mm 6 m/s 743 mmHg 43%
14:00 +8°C° 0 mm 6 m/s 743 mmHg 43%
15:00 +8°C° 0 mm 6 m/s 744 mmHg 42%
16:00 +8°C° 0 mm 7 m/s 744 mmHg 42%
17:00 +7°C° 0 mm 6 m/s 744 mmHg 45%
18:00 +5°C° 0 mm 6 m/s 745 mmHg 48%
19:00 +3°C° 0 mm 5 m/s 745 mmHg 51%
20:00 +2°C° 0 mm 5 m/s 746 mmHg 51%
21:00 +1°C° 0 mm 4 m/s 746 mmHg 52%
22:00 +1°C° 0 mm 3 m/s 746 mmHg 52%
23:00 0°C° 0 mm 4 m/s 747 mmHg 56%

19 Abril, Segunda-feira

Tempo Temperatura Precipitação Vento Pressão Humidade
00:00 -1°C° 0 mm 4 m/s 747 mmHg 60%
01:00 -2°C° 0 mm 5 m/s 748 mmHg 65%
02:00 -2°C° 0 mm 4 m/s 749 mmHg 64%
03:00 -2°C° 0 mm 4 m/s 749 mmHg 63%
04:00 -2°C° 0 mm 4 m/s 750 mmHg 62%
05:00 -2°C° 0 mm 4 m/s 750 mmHg 56%
06:00 -2°C° 0 mm 4 m/s 751 mmHg 50%
07:00 -2°C° 0 mm 5 m/s 751 mmHg 45%
08:00 -1°C° 0 mm 4 m/s 752 mmHg 38%
09:00 0°C° 0 mm 4 m/s 752 mmHg 32%
10:00 +1°C° 0 mm 4 m/s 752 mmHg 25%
11:00 +3°C° 0 mm 4 m/s 752 mmHg 24%
12:00 +4°C° 0 mm 3 m/s 752 mmHg 24%
13:00 +4°C° 0 mm 3 m/s 752 mmHg 23%
14:00 +5°C° 0 mm 3 m/s 752 mmHg 23%
15:00 +6°C° 0 mm 2 m/s 752 mmHg 23%
16:00 +6°C° 0 mm 2 m/s 752 mmHg 23%
17:00 +5°C° 0 mm 2 m/s 752 mmHg 28%
18:00 +4°C° 0 mm 2 m/s 752 mmHg 33%
19:00 +3°C° 0 mm 2 m/s 753 mmHg 38%
20:00 +3°C° 0 mm 1 m/s 753 mmHg 41%
21:00 +2°C° 0 mm 1 m/s 753 mmHg 44%
22:00 +1°C° 0 mm 1 m/s 754 mmHg 47%
23:00 +1°C° 0 mm 1 m/s 754 mmHg 47%
Mostrar mais

Necessitamos do seu Consentimento

A Meteoprog e os seus Fornecedores de Serviços podem armazenar e aceder a dados pessoais como cookies, identificadores do dispositivo ou outras tecnologias semelhantes existentes no seu dispositivo e processar estes dados para personalizar conteúdos e anúncios, assim como funcionalidades nas redes sociais e análise de tráfego.

  • Armazenar e/ou aceder a informações no seu dispositivo

    Os cookies, identificadores do dispositivo ou outras informações podem ser armazenados ou acedidos no seu dispositivo, para os fins acima indicados.

  • Anúncios e conteúdos personalizados, medição de anúncios e conteúdos, dados sobre o público-alvo e desenvolvimento de produtos

    Os anúncios e os conteúdos podem ser personalizados com base num perfil. Podem ser adicionados dados adicionais para uma maior personalização dos anúncios e dos conteúdos. A eficácia dos anúncios e dos conteúdos pode ser medida. Podem ser obtidas informações sobre o público que visualizou os anúncios e os conteúdos. Estes dados podem ser usados para desenvolver ou melhorar sistemas, softwares ou a experiência do utilizador.

Ao clicar em "Eu concordo”, permitirá o uso de cookies, identificadores do dispositivo e web beacons mencionados ou outras tecnologias semelhantes. As configurações do navegador do seu dispositivo podem ser alteradas.

Para certos fins, podem ser invocados interesses legítimos ao invés de consentimento. Pode ler mais informação sobre este assunto na nossa Política de Privacidade e Cookies.